Voltar ao catálogo

COSMOS 2251 DEB

AtivoLEO
NORAD 34589·DEBRIS·🇷🇺 Russia

Lançado Jun 16, 1993 de Plesetsk Cosmodrome

Loading…

Próximas Passagens (próximas 24 horas)

TLE

AtualizadoSource: Space-Track

Época: Sep 14, 2026, 02:59 UTC

1 34589U 93036WB  26257.12496128  .00000558  00000-0  39272-3 0  9999
2 34589  73.9254 306.5934 0249130 196.7849 192.9028 13.86505818885281

Acompanhe COSMOS 2251 DEB em tempo real com AllMySat

Download on the App Store